[[{"header":{"parameterUnit":"m.s-1","parameterCategory":1,"la1":30.2991,"la2":30.254,"lo1":-89.0895,"lo2":-89.0444,"dy":0.0017,"dx":0.0017,"nx":28,"ny":28,"refTime":"2023-10-06T03:00:00:Z","depth":0,"parameterNumber":2,"parameterNumberName":"U-component_of_WINDS"},"data":[0,0,0,0,0,0,0,0,0,0,0,0,0,0,0,0,0,0,0,0,0,0,0,0,0,0,0,0,0,0,0,0,0,0,0,0,0,0,0,0,0,0,0,0,0,0,0,0,0,0,0,0,0,0,0,0,0,0,-4.0032,-4.0031,0,-3.999,-3.999,-3.9989,-3.9888,-3.9886,-3.9884,-3.9882,-3.9843,-3.9844,-3.9845,0,0,0,0,0,0,0,0,0,0,0,0,0,-4.0028,-4.0028,-4.0032,-4.0031,-4.0031,-3.999,-3.999,-3.9989,-3.9888,-3.9886,-3.9883,-3.9881,-3.9842,-3.9844,-3.9845,0,0,0,0,0,0,0,0,0,0,0,0,0,-4.0012,-4.0028,-4.0032,-3.9975,-3.997,-3.999,-3.999,-3.9989,-3.9889,-3.9886,-3.9882,-3.9879,-3.9842,-3.9843,-3.9845,-3.9918,0,0,-3.9849,-3.985,0,0,0,0,0,0,0,0,-4.0013,-4.0013,-3.9984,-3.9979,-3.9973,-3.9941,-3.9974,-3.9965,-3.989,-3.992,-3.9882,-3.9878,-3.9878,-3.9877,-3.9876,-3.9916,-3.9915,-3.9849,-3.985,-3.9851,-3.9851,0,0,0,0,0,0,0,-4.0015,-4.0014,-4.0015,-3.9984,-3.9977,-3.9954,-3.9948,-3.9972,-3.9918,-3.9917,-3.9909,-3.9906,-3.9875,-3.9875,-3.9874,-3.9914,-3.9849,-3.9851,-3.9852,-3.9852,-4.0012,-4.0015,0,0,0,0,0,0,-4.0023,-4.0015,-4.0017,-4.0014,-3.9986,-3.9956,-3.995,-3.9955,-3.9917,-3.9908,-3.9908,-3.9901,-3.9874,-3.9873,-3.9873,-3.9954,-3.9851,-3.9852,-3.9853,-4.0009,-4.0013,-4.0017,0,0,0,0,0,0,-4.0023,-4.0024,-4.0018,-4.0013,-4.001,-3.996,-3.9966,-3.9955,-3.9955,-3.9911,-3.9901,-3.9918,-3.9871,-3.987,-3.9907,-3.9951,-3.9853,-3.9854,-4.0005,-4.001,-4.0015,-4.0119,0,0,0,0,0,0,-4.0024,-4.0025,-4.0051,-4.0014,-4.0011,-4.0052,-3.9969,-3.9957,-3.9958,-3.9948,-3.9917,-3.9909,-3.9869,-3.9906,-3.9909,-3.9952,-3.9855,-4.0001,-4.0007,-4.0013,-4.0111,-4.0127,-4.0141,0,0,0,0,0,-4.0024,-4.0083,-4.0053,-4.0053,-4.0042,-4.0055,-4.0053,-4.0005,-3.9962,-3.9988,-3.996,-3.991,-3.9947,-3.991,-3.9913,-3.9957,-3.9998,-4.0005,-4.0013,-4.0105,-4.0124,-4.014,0,0,0,0,0,0,-4.0127,-4.0077,-4.0043,-4.0091,-4.0078,-4.0038,-4.0069,-4.0027,-4.0026,-4.0017,-3.9958,-3.9952,-3.9997,-3.9981,-3.9941,-4.0026,-3.9964,-3.9973,-4.0033,-4.0051,-4.0066,-4.0067,-3.9857,0,0,0,0,0,-4.0155,-4.0169,-4.0125,-4.0172,-4.0167,-4.012,-4.0124,-4.0088,-4.0072,-4.0066,-4.0041,-4.0029,-4.0037,-4.0044,-4.005,-4.011,-4.0102,-4.0142,-4.0157,-4.0169,-4.0176,-4.0206,-4.0223,-4.0042,-4.0042,-4.0041,0,0,-4.0214,-4.0188,-4.02,-4.0192,-4.0177,-4.0194,-4.0116,-4.0136,-4.0148,-4.007,-4.0101,-4.0083,-4.0066,-4.0115,-4.0135,-4.0103,-4.0225,-4.0179,-4.0189,-4.0189,-4.0215,-4.0233,-4.0248,-4.0047,-4.0046,-4.0045,0,0,-4.0327,-4.031,-4.0346,-4.0334,-4.0313,-4.0281,-4.0291,-4.0258,-4.0242,-4.0273,-4.0214,-4.0229,-4.0246,-4.0235,-4.0232,-4.0346,-4.03,-4.035,-4.0424,-4.0454,-4.0468,-4.0481,-4.0519,-4.0534,-4.0358,-4.0358,-4.0358,0,-4.0402,-4.0423,-4.0371,-4.0395,-4.0393,-4.0324,-4.036,-4.0351,-4.0334,-4.0335,-4.03,-4.0319,-4.0303,-4.0347,-4.0375,-4.0376,-4.0385,-4.0351,-4.0471,-4.0482,-4.0493,-4.0529,-4.0544,-4.0364,-4.0363,-4.0363,-4.0362,0,-4.0516,-4.0531,-4.0564,-4.0547,-4.055,-4.0581,-4.0534,-4.0544,-4.0509,-4.0482,-4.0515,-4.0494,-4.0493,-4.0503,-4.0469,-4.0543,-4.0523,-4.0481,-4.0417,-4.0517,-4.0549,-4.0563,-4.0373,-4.037,-4.0369,-4.0367,0,0,-4.0689,-4.0645,-4.0657,-4.0649,-4.0622,-4.0633,-4.0663,-4.0661,-4.067,-4.0662,-4.0684,-4.0701,-4.0661,-4.0658,-4.0623,-4.065,-4.0739,-4.0604,-4.0602,-4.0627,-4.0818,-4.0847,-4.0864,-4.0711,-4.0713,-4.0715,-4.0818,0,-4.0793,-4.0837,-4.0792,-4.0845,-4.0859,-4.0795,-4.082,-4.0807,-4.0784,-4.0793,-4.0768,-4.078,-4.0728,-4.0725,-4.075,-4.0723,-4.0776,-4.0716,-4.0729,-4.0731,-4.0731,-4.0881,-4.0912,-4.101,-4.0831,-4.0833,-4.0834,0,-4.0919,-4.0916,-4.097,-4.094,-4.0944,-4.0967,-4.0962,-4.0973,-4.0958,-4.0939,-4.0937,-4.0895,-4.0922,-4.0864,-4.09,-4.086,-4.0864,-4.0853,-4.0856,-4.0852,-4.0786,-4.0878,-4.104,-4.1054,-4.0854,-4.0853,-4.0851,0,-4.1037,-4.1046,-4.1079,-4.1075,-4.1041,-4.1059,-4.1046,-4.1028,-4.1031,-4.1028,-4.1029,-4.1031,-4.1031,-4.1034,-4.0994,-4.0956,-4.1036,-4.0974,-4.102,-4.1021,-4.1036,-4.1035,-4.1198,-4.1046,-4.1045,-4.1045,-4.1045,0,-4.1156,-4.1191,-4.1131,-4.1151,-4.1189,-4.114,-4.1179,-4.116,-4.1145,-4.1161,-4.1109,-4.1125,-4.1073,-4.1085,-4.1055,-4.1089,-4.1091,-4.1076,-4.1067,-4.1078,-4.108,-4.1077,-4.1068,-4.1049,-4.1048,-4.1047,-4.1047,0,-4.1291,-4.1253,-4.1284,-4.1251,-4.1244,-4.1273,-4.1244,-4.1262,-4.1237,-4.1258,-4.1261,-4.1221,-4.1232,-4.1194,-4.1199,-4.1179,-4.1228,-4.121,-4.1232,-4.1225,-4.1272,-4.1267,-4.1436,-4.1455,-4.1294,-4.1296,-4.1297,0,-4.1367,-4.1392,-4.1362,-4.1368,-4.1358,-4.1369,-4.1371,-4.1325,-4.133,-4.1316,-4.1336,-4.1343,-4.1345,-4.1366,-4.1338,-4.1342,-4.1322,-4.1381,-4.1322,-4.1332,-4.1319,-4.1316,-4.1318,-4.1392,-4.1394,-4.1395,-4.1397,0,-4.1506,-4.1486,-4.149,-4.1489,-4.1493,-4.149,-4.1483,-4.1492,-4.1442,-4.1451,-4.1461,-4.1463,-4.1469,-4.1476,-4.1474,-4.1462,-4.1421,-4.1416,-4.1426,-4.1436,-4.1447,-4.1439,-4.1262,-4.1411,-4.141,-4.1409,-4.1408,-4.1407,-4.1611,-4.163,-4.1612,-4.1619,-4.1609,-4.1605,-4.1619,-4.1596,-4.1603,-4.1603,-4.1576,-4.1592,-4.1578,-4.1572,-4.1565,-4.1577,-4.1549,-4.1565,-4.1568,-4.1572,-4.1579,-4.1449,-4.1577,-4.1576,-4.1576,-4.1576,-4.1575,0,-4.1744,-4.173,-4.1737,-4.1729,-4.1735,-4.1697,-4.1688,-4.1695,-4.1709,-4.17,-4.1703,-4.1715,-4.1723,-4.1697,-4.1701,-4.1715,-4.1697,-4.1718,-4.1714,-4.1712,-4.1604,-4.1593,-4.1733,-4.1733,-4.1733,-4.1733,-4.1733,-4.1733,-4.1814,-4.1844,-4.1823,-4.1848,-4.1833,-4.1847,-4.1845,-4.1841,-4.1833,-4.1848,-4.1853,-4.1837,-4.182,-4.1823,-4.1828,-4.1821,-4.1823,-4.185,-4.1836,-4.1735,-4.172,-4.1705,-4.1694,-4.1852,-4.1852,-4.1942,-4.1943,-4.1943]},{"header":{"parameterUnit":"m.s-1","parameterCategory":1,"la1":30.2991,"la2":30.254,"lo1":-89.0895,"lo2":-89.0444,"dy":0.0017,"dx":0.0017,"nx":28,"ny":28,"refTime":"2023-10-06T03:00:00:Z","depth":0,"parameterNumber":3,"parameterNumberName":"V-component_of_WINDS"},"data":[0,0,0,0,0,0,0,0,0,0,0,0,0,0,0,0,0,0,0,0,0,0,0,0,0,0,0,0,0,0,0,0,0,0,0,0,0,0,0,0,0,0,0,0,0,0,0,0,0,0,0,0,0,0,0,0,0,0,1.8071,1.8071,0,1.8011,1.801,1.8009,1.7959,1.7958,1.7958,1.7957,1.789,1.7889,1.7888,0,0,0,0,0,0,0,0,0,0,0,0,0,1.8141,1.814,1.8071,1.8071,1.807,1.8011,1.801,1.8009,1.7959,1.7958,1.7958,1.7957,1.7891,1.7889,1.7888,0,0,0,0,0,0,0,0,0,0,0,0,0,1.8099,1.814,1.8072,1.8038,1.8034,1.8011,1.801,1.8009,1.7959,1.7958,1.7957,1.7957,1.7891,1.7889,1.7887,1.7891,0,0,1.7881,1.788,0,0,0,0,0,0,0,0,1.8101,1.8096,1.8044,1.804,1.8036,1.7992,1.801,1.7969,1.7959,1.7987,1.7957,1.7956,1.7924,1.7919,1.791,1.7888,1.7885,1.7881,1.788,1.7879,1.7879,0,0,0,0,0,0,0,1.8104,1.8098,1.8047,1.8043,1.8038,1.8025,1.8018,1.8002,1.7961,1.7985,1.7981,1.7975,1.7922,1.7912,1.7908,1.7884,1.7881,1.7879,1.7878,1.7877,1.7863,1.7864,0,0,0,0,0,0,1.8113,1.8101,1.8049,1.8045,1.8068,1.8024,1.8017,1.8007,1.7961,1.7953,1.7976,1.7973,1.7915,1.791,1.7905,1.7907,1.7879,1.7877,1.7876,1.7862,1.7863,1.7864,0,0,0,0,0,0,1.8115,1.8109,1.8052,1.8072,1.8064,1.8024,1.8013,1.8006,1.7995,1.7954,1.7946,1.7973,1.7915,1.7908,1.7895,1.7904,1.7876,1.7875,1.7861,1.7863,1.7864,1.7911,0,0,0,0,0,0,1.8117,1.811,1.8111,1.8073,1.8063,1.8044,1.8014,1.8005,1.7993,1.7988,1.7949,1.7942,1.7913,1.7899,1.7894,1.7901,1.7873,1.786,1.7862,1.7863,1.7908,1.7914,1.7918,0,0,0,0,0,1.8119,1.8125,1.8111,1.8105,1.8064,1.8045,1.8039,1.8007,1.7994,1.7995,1.7968,1.7943,1.7904,1.7898,1.7892,1.7899,1.786,1.7861,1.7863,1.7906,1.7913,1.7918,0,0,0,0,0,0,1.8164,1.812,1.8104,1.8098,1.8076,1.8036,1.8036,1.8015,1.7995,1.7991,1.7952,1.7943,1.7935,1.7915,1.7909,1.79,1.7879,1.7879,1.7914,1.7919,1.7924,1.7929,1.7871,0,0,0,0,0,1.8173,1.8162,1.8124,1.8122,1.8112,1.8076,1.8066,1.8044,1.8019,1.8009,1.7981,1.7957,1.7939,1.7928,1.7909,1.7906,1.7896,1.7907,1.7912,1.7916,1.7917,1.7915,1.792,1.787,1.787,1.787,0,0,1.8192,1.8166,1.8161,1.813,1.811,1.8099,1.8068,1.8057,1.8048,1.8006,1.7994,1.7973,1.7943,1.7935,1.7931,1.7918,1.7929,1.7919,1.7922,1.7921,1.7917,1.7922,1.7926,1.7871,1.7871,1.7871,0,0,1.822,1.82,1.8197,1.8178,1.815,1.8126,1.8126,1.809,1.8075,1.8063,1.8032,1.802,1.799,1.797,1.7956,1.798,1.7956,1.7974,1.7999,1.7997,1.8001,1.8005,1.8014,1.8017,1.7975,1.7976,1.7976,0,1.8246,1.8229,1.8197,1.8189,1.8176,1.8141,1.8137,1.812,1.8086,1.8078,1.8066,1.8029,1.8006,1.7994,1.8,1.799,1.7988,1.7978,1.8004,1.8007,1.8009,1.8017,1.8021,1.7978,1.7978,1.7978,1.7977,0,1.8263,1.8252,1.8253,1.8223,1.8211,1.8205,1.8172,1.8163,1.8143,1.8121,1.8108,1.808,1.8056,1.8051,1.803,1.8036,1.803,1.8011,1.7989,1.8017,1.8024,1.8027,1.7982,1.7981,1.798,1.7979,0,0,1.8316,1.8271,1.8272,1.8259,1.8226,1.8216,1.8208,1.8187,1.818,1.8158,1.8151,1.8128,1.8111,1.8095,1.8072,1.807,1.8092,1.8051,1.805,1.806,1.8098,1.8112,1.8117,1.8076,1.8077,1.8077,1.8101,0,1.8339,1.8325,1.8298,1.8292,1.8282,1.8249,1.8242,1.8221,1.82,1.8188,1.8164,1.8149,1.8127,1.8118,1.8115,1.809,1.8099,1.8088,1.8068,1.8068,1.8077,1.812,1.8135,1.8158,1.8103,1.8103,1.8104,0,1.8363,1.8346,1.8341,1.831,1.8304,1.8299,1.8278,1.8266,1.8242,1.8227,1.8211,1.8186,1.8176,1.8156,1.8142,1.8135,1.8126,1.8112,1.8112,1.8109,1.8088,1.8118,1.8165,1.8169,1.8107,1.8107,1.8107,0,1.8403,1.8378,1.8372,1.8362,1.8326,1.8323,1.8308,1.8282,1.8272,1.8253,1.8245,1.8225,1.8213,1.8198,1.8168,1.8156,1.8157,1.8135,1.8144,1.8145,1.8146,1.8146,1.8192,1.814,1.814,1.814,1.814,0,1.8432,1.843,1.839,1.8386,1.8383,1.8351,1.8349,1.833,1.8308,1.83,1.8269,1.8262,1.8223,1.8211,1.8187,1.818,1.8174,1.8162,1.8156,1.8165,1.8166,1.8158,1.8155,1.8141,1.814,1.814,1.814,0,1.8476,1.8449,1.844,1.8408,1.8399,1.8399,1.837,1.8365,1.8344,1.8333,1.8329,1.8295,1.8279,1.8249,1.8223,1.8208,1.8205,1.8194,1.8214,1.8211,1.8222,1.8222,1.8264,1.8269,1.8214,1.8214,1.8215,0,1.8496,1.8494,1.8462,1.8455,1.8441,1.843,1.842,1.8389,1.8379,1.8352,1.835,1.8333,1.8317,1.8293,1.8266,1.8247,1.8235,1.8252,1.8232,1.8242,1.8236,1.8237,1.8237,1.8256,1.8256,1.8257,1.8258,0,1.8534,1.8522,1.8509,1.8492,1.8481,1.8466,1.8449,1.8444,1.8409,1.84,1.8385,1.8373,1.8349,1.8332,1.8309,1.8292,1.8269,1.8264,1.8266,1.8275,1.8287,1.8281,1.8227,1.8263,1.8263,1.8262,1.8262,1.8262,1.8567,1.8564,1.8542,1.8529,1.8514,1.8499,1.8493,1.8472,1.8459,1.8439,1.8421,1.8408,1.8384,1.8352,1.8336,1.8325,1.8314,1.8315,1.8316,1.8317,1.8321,1.8289,1.832,1.832,1.832,1.832,1.832,0,1.8604,1.8589,1.8578,1.8556,1.8546,1.8528,1.8508,1.8501,1.849,1.847,1.8457,1.844,1.8424,1.8396,1.8377,1.8373,1.8363,1.837,1.8369,1.8366,1.8332,1.8333,1.8379,1.8379,1.8379,1.8379,1.8379,1.8379,1.8623,1.8618,1.8603,1.859,1.8574,1.8563,1.8553,1.854,1.8524,1.8508,1.8495,1.8478,1.8455,1.8435,1.8419,1.8411,1.8406,1.8417,1.8406,1.8374,1.8368,1.8363,1.8364,1.8416,1.8416,1.8441,1.8441,1.8441]}]]